Погода в Дорожаеве

Россия / Ивановская область     56°40′34″N   41°29′07″E
темп.,
°C
ветер,
м/с
пор.,
м/с
влажн.,
%
обл.,
%
осадки,
мм/ч
давл.,
гПа
погр.,
м
25 июня, сб
сб2500:00+15ссз22835 0.0 101518
03:00+14с358422 0.0 101787
06:00+17с25775 0.0 1017146
09:00+23с35590 0.0 1018634
12:00+26с46467 0.0 10182006
15:00+26ссз454877 0.0 10181652
18:00+25ссз366088 0.0 1018719
21:00+21сз277393 0.0 1018174
26 июня, вс
вс2600:00+20ссз2274100 0.0 101938
03:00+19ссз228095 0.0 102059
06:00+20ссв237991 0.0 1021181
09:00+23св11640 0.0 1021541
12:00+26ссв22490 0.0 10211180
15:00+27ссв34485 0.0 10201276
18:00+26ссв24580 0.0 1020758
21:00+21ююз11804 0.0 101911
27 июня, пн
пн2700:00+19юз35835 0.0 101976
03:00+18зюз398514 0.0 1019167
06:00+20з310870 0.2 1018283
09:00+25сз48510 0.2 1018633
12:00+28ссз58470 0.0 10181413
15:00+28ссз58440 0.0 10172219
18:00+25ссв57606 0.0 1018844
21:00+18ссв39940 1.2 1019231
28 июня, вт
вт2800:00+13св37875 0.0 1021117
03:00+10ссв38871 0.0 1023152
06:00+12ссв39730 0.0 1023322
09:00+17ссв47490 0.0 10241110
12:00+19ссв46390 0.0 10241587
15:00+20с45362 0.0 10241776
18:00+19с35440 0.0 10231594
21:00+13с24730 0.0 102463
29 июня, ср
ср2900:00+10ссв24720 0.0 102567
03:00+8ссв23740 0.0 102648
06:00+11ссв256496 0.0 1026178
09:00+17ссв34450 0.0 1026938
12:00+20ссв34340 0.0 10261818
15:00+21с34331 0.0 10251833
18:00+20ссз344619 0.0 10241216
21:00+14сз356959 0.0 102470